CZ-2C DEB

Satellite information

Favourite Embed

Satellite Type and Status

DEBRISIN ORBIT

Key statistics

Satellite CZ-2C DEB at a glance.

Uptime

4375

Days in orbit

Revolutions

≈ 14.3

Per day

Orbit

SSO

Sun Synchronous Orbit

Inclination

97.9

Latest

Satellite identification and parameters

Extended collection of information and parameters for CZ-2C DEB.

Object identification

Identified? True

Debris? True

Object name: CZ-2C DEB

International designator: 2013-035E

Object number (NORAD): 39224

Object ID (CCSDS): 39224

Country: PEOPLES REPUBLIC OF CHINA (PRC)

Current information (Y/N): Y

RCS size: SMALL

Orbital parameters

Period: 100.415 minutes

Inclination: 97.8993 deg

SMA: 7156.366 km

Apoapsis: 888.814 km

Periapsis: 667.648 km

RAAN: 344.8004 deg

Eccentricy: 0.0154524

Argument of periapsis: 129.0925 deg

Mean anomaly: 232.4122 deg

Mean motion: 14.34048964 rev/day

Mean motion (dot): 0.00002217 rev/day2

B* drag term: 0.00070634 1/REarth

Two-line elements (TLE)

Creation date: July 6, 2025, 6:05 p.m.

Reference frame: TEME

Reference center: EARTH

Epoch: July 6, 2025, 9:54 a.m. UTC

TLE line 0: 0 CZ-2C DEB

TLE line 1: 1 39224U 13035E 25187.41255242 .00002217 00000-0 70634-3 0 9995

TLE line 2: 2 39224 97.8993 344.8004 0154524 129.0925 232.4122 14.34048964617899

Live tracking on map

Real-time ground track for satellite CZ-2C DEB.

In-orbit conjunctions

A list of the most updated potential collisions computed for object CZ-2C DEB.

Target Orbit TCA Probability of collision Miss distance Type
FENGYUN 1C DEB SSO 2025-01-20 06:22:25 0.0005969665 61.0 (m) DEBRIS
FENGYUN 1C DEB SSO 2024-08-05 01:51:48 0.0001264576 168.0 (m) DEBRIS

Associated space launch

CZ-2C DEB was lifted into orbit during the mission ‘Long March 2C | Shijian 11-05’, on board a Long March 2 space rocket.

The launch took place on July 15, 2013, 9:27 a.m. from Launch Area 4 (SLS-2 / 603).

For more information about the launch, click the button.

Launch to space Long March 2C | Shijian 11-05
Long March 2C | Shijian 11-05

Agency: N/A

Status: Launch Successful

Launch date: July 15, 2013, 9:27 a.m. UTC

Rocket: Long March 2

Launch pad: Launch Area 4 (SLS-2 / 603)

Location: Jiuquan Satellite Launch Center, People's Republic of China

...

Latest news about this satellite

There are no fresh news available about this satellite. Check back as we update our databases every day.


Newsletter sign-up

Weekly statistics, charts and insights to help you stay on top of the space industry.